FW1786 Weather Reports


Display with metric or nautical units.
time (UTC)temp
F
wind
direction
speed
MPH
gust
MPH
rain 1hr
in
rain 24hr
in
rain mn
in
humidity
%
barometer
mb
20260505041521 58 31 0.0 1.0 0.00 0.00 0.00 87 1006.8
20260505040025 59 72 0.0 1.0 0.00 0.00 0.00 87 1007.1
20260505034514 59 134 0.0 1.0 0.00 0.00 0.00 85 1007.2
20260505033021 60 155 0.0 0.0 0.00 0.00 0.00 83 1007.3
20260505031519 60 155 0.0 0.0 0.00 0.00 0.00 82 1007.4
20260505030025 61 150 0.0 1.0 0.00 0.00 0.00 80 1007.4
20260505024510 62 146 0.0 1.0 0.00 0.00 0.00 77 1007.3
20260505023018 63 142 0.0 0.0 0.00 0.00 0.00 74 1007.2
20260505021524 65 142 0.0 1.0 0.00 0.00 0.00 72 1006.9
20260505020022 67 142 0.0 1.0 0.00 0.00 0.00 66 1006.7
20260505014522 68 178 0.0 3.0 0.00 0.00 0.00 62 1006.4
20260505013017 69 213 0.0 3.0 0.00 0.00 0.00 61 1006.0
20260505011519 70 152 0.0 5.0 0.00 0.00 0.00 57 1005.9
20260505010024 72 193 2.0 12.0 0.00 0.00 0.00 55 1005.8
20260505004538 72 163 2.0 7.0 0.00 0.00 0.00 55 1005.8
20260505003025 73 273 1.0 13.0 0.00 0.00 0.00 54 1005.7
20260505001515 73 275 3.0 10.0 0.00 0.00 0.00 53 1005.7
20260505000021 74 189 1.0 6.0 0.00 0.00 0.00 54 1005.7
20260504234527 75 254 2.0 10.0 0.00 0.00 0.00 51 1005.6
20260504233020 76 167 2.0 7.0 0.00 0.00 0.00 51 1005.6
20260504231532 76 165 3.0 9.0 0.00 0.00 0.00 49 1005.7
20260504230022 77 333 3.0 10.0 0.00 0.00 0.00 48 1005.6
20260504224522 77 244 1.0 11.0 0.00 0.00 0.00 49 1005.8
20260504223022 78 250 2.0 7.0 0.00 0.00 0.00 48 1005.8
20260504221523 78 196 3.0 10.0 0.00 0.00 0.00 46 1006.1
20260504220024 78 179 3.0 12.0 0.00 0.00 0.00 48 1006.1
20260504214534 78 206 5.0 11.0 0.00 0.00 0.00 45 1006.1
20260504213029 78 97 3.0 14.0 0.00 0.00 0.00 45 1006.4
20260504211526 79 157 3.0 10.0 0.00 0.00 0.00 45 1006.5
20260504210024 80 136 3.0 10.0 0.00 0.00 0.00 43 1006.7
20260504204550 80 201 2.0 12.0 0.00 0.00 0.00 45 1006.8
20260504203029 80 179 4.0 12.0 0.00 0.00 0.00 43 1006.9
20260504201528 79 328 5.0 13.0 0.00 0.00 0.00 42 1007.2
20260504200014 79 162 5.0 13.0 0.00 0.00 0.00 43 1007.4
20260504194513 80 132 5.0 14.0 0.00 0.00 0.00 44 1007.4
20260504193017 79 360 4.0 15.0 0.00 0.00 0.00 45 1007.7
20260504191511 79 232 5.0 18.0 0.00 0.00 0.00 46 1007.6
20260504190017 79 279 2.0 12.0 0.00 0.00 0.00 45 1007.8
20260504184516 79 352 5.0 17.0 0.00 0.00 0.00 44 1007.9
20260504183018 78 225 4.0 14.0 0.00 0.00 0.00 48 1008.2
20260504181512 78 175 3.0 15.0 0.00 0.00 0.00 47 1008.2
20260504180014 77 293 3.0 14.0 0.00 0.00 0.00 50 1008.3
20260504174523 76 151 3.0 13.0 0.00 0.00 0.00 49 1008.8
20260504173020 76 148 4.0 18.0 0.00 0.00 0.00 47 1008.9
20260504171537 77 237 6.0 11.0 0.00 0.00 0.00 47 1008.8
20260504081527 55 360 0.0 1.0 0.00 0.00 0.00 83 1011.2